EWG6NX EDDL-LOWW

Flight info

Callsign EWG6NX
Flight time N/A
Altitude 35000
Route DODEN1T/23L DODEN Y853 BOMBI DCT ESATI DCT BARSU DCT EKSOS DCT LULAR DCT RUDAP DCT BUDEX BUDEX2W
Aircraft A320/M-SDE3FGHIRWY/LB1

Departure

Time N/A
Airport Düsseldorf Airport (EDDL)

Arrival

Time 2026-05-03 20:29
Airport Vienna International Airport (LOWW)
Time Latitude Longitude Altitude Speed Heading
2026-05-03 20:15 48.60355 15.55565 10010 ft 386 kts 107°
2026-05-03 20:15 48.59652 15.59472 10012 ft 386 kts 107°
2026-05-03 20:15 48.58947 15.63383 10020 ft 386 kts 106°
2026-05-03 20:15 48.58244 15.67274 9828 ft 384 kts 107°
2026-05-03 20:16 48.57540 15.71167 9440 ft 382 kts 106°
2026-05-03 20:16 48.56844 15.75027 9023 ft 380 kts 107°
2026-05-03 20:16 48.56150 15.78857 8611 ft 377 kts 107°
2026-05-03 20:16 48.55461 15.82644 8217 ft 373 kts 107°
2026-05-03 20:17 48.54777 15.86395 7871 ft 370 kts 107°
2026-05-03 20:17 48.54092 15.90133 7605 ft 368 kts 107°
2026-05-03 20:17 48.53419 15.93810 7337 ft 356 kts 108°
2026-05-03 20:17 48.52774 15.97344 7067 ft 342 kts 108°
2026-05-03 20:18 48.52056 16.00664 6815 ft 327 kts 117°
2026-05-03 20:18 48.51090 16.03691 6620 ft 314 kts 117°
2026-05-03 20:18 48.50162 16.06600 6447 ft 302 kts 117°
2026-05-03 20:18 48.49272 16.09389 6318 ft 288 kts 117°
2026-05-03 20:19 48.48426 16.12048 6209 ft 275 kts 117°
2026-05-03 20:19 48.47616 16.14585 6067 ft 263 kts 118°
2026-05-03 20:19 48.46838 16.17011 5946 ft 253 kts 118°
2026-05-03 20:19 48.46074 16.19386 5832 ft 251 kts 119°
2026-05-03 20:20 48.45310 16.21754 5691 ft 250 kts 120°
2026-05-03 20:20 48.44550 16.24105 5571 ft 250 kts 120°
2026-05-03 20:20 48.43791 16.26451 5456 ft 249 kts 120°
2026-05-03 20:20 48.43034 16.28789 5333 ft 252 kts 119°
2026-05-03 20:21 48.42243 16.31228 5211 ft 263 kts 119°
2026-05-03 20:21 48.41440 16.33711 5134 ft 264 kts 120°
2026-05-03 20:21 48.40639 16.36188 5021 ft 263 kts 120°
2026-05-03 20:21 48.39849 16.38634 4970 ft 253 kts 120°
2026-05-03 20:22 48.39108 16.40933 4983 ft 236 kts 120°
2026-05-03 20:22 48.38406 16.43105 4990 ft 232 kts 120°
2026-05-03 20:22 48.37679 16.45252 4985 ft 220 kts 128°
2026-05-03 20:22 48.36699 16.46863 4984 ft 200 kts 147°
2026-05-03 20:23 48.35530 16.47792 5003 ft 189 kts 164°
2026-05-03 20:23 48.34256 16.48342 4978 ft 188 kts 166°
2026-05-03 20:23 48.33015 16.48871 4805 ft 187 kts 167°
2026-05-03 20:23 48.31776 16.49400 4575 ft 182 kts 167°
2026-05-03 20:24 48.30585 16.49909 4342 ft 175 kts 167°
2026-05-03 20:24 48.29438 16.50398 4121 ft 168 kts 167°
2026-05-03 20:24 48.28336 16.50868 3908 ft 162 kts 167°
2026-05-03 20:24 48.27264 16.51324 3678 ft 159 kts 167°
2026-05-03 20:25 48.26203 16.51776 3473 ft 158 kts 167°
2026-05-03 20:25 48.25146 16.52226 3268 ft 157 kts 167°
2026-05-03 20:25 48.24098 16.52672 3058 ft 156 kts 166°
2026-05-03 20:25 48.23058 16.53114 2853 ft 155 kts 166°
2026-05-03 20:26 48.22041 16.53547 2660 ft 147 kts 166°
2026-05-03 20:26 48.21099 16.53949 2516 ft 132 kts 166°
2026-05-03 20:26 48.20243 16.54314 2356 ft 130 kts 166°
2026-05-03 20:26 48.19369 16.54676 2142 ft 130 kts 165°
2026-05-03 20:27 48.18509 16.55043 1979 ft 126 kts 165°
2026-05-03 20:27 48.17692 16.55377 1879 ft 119 kts 165°
2026-05-03 20:27 48.16882 16.55713 1674 ft 121 kts 163°
2026-05-03 20:27 48.16019 16.56083 1524 ft 137 kts 163°
2026-05-03 20:28 48.15081 16.56495 1334 ft 143 kts 163°
2026-05-03 20:28 48.14117 16.56892 1141 ft 144 kts 165°
2026-05-03 20:28 48.13148 16.57310 941 ft 145 kts 164°
2026-05-03 20:28 48.12186 16.57718 720 ft 142 kts 162°
2026-05-03 20:29 48.11290 16.58105 623 ft 122 kts 163°
2026-05-03 20:29 48.10661 16.58375 622 ft 61 kts 164°
2026-05-03 20:29 48.10376 16.58467 624 ft 31 kts 180°
2026-05-03 20:29 48.10212 16.58430 610 ft 21 kts 193°
2026-05-03 20:30 48.10106 16.58350 615 ft 15 kts 247°
2026-05-03 20:30 48.10101 16.58209 617 ft 13 kts 305°
2026-05-03 20:30 48.10175 16.58161 614 ft 11 kts 346°
2026-05-03 20:30 48.10247 16.58131 618 ft 11 kts 343°
2026-05-03 20:31 48.10359 16.58084 617 ft 21 kts 344°
2026-05-03 20:31 48.10490 16.58030 616 ft 19 kts 344°
2026-05-03 20:31 48.10610 16.57977 613 ft 17 kts 343°
2026-05-03 20:31 48.10718 16.57931 617 ft 16 kts 345°
2026-05-03 20:32 48.10818 16.57890 620 ft 14 kts 344°
2026-05-03 20:32 48.10909 16.57851 612 ft 14 kts 344°
2026-05-03 20:32 48.11026 16.57802 610 ft 21 kts 345°
2026-05-03 20:32 48.11187 16.57736 612 ft 26 kts 343°
2026-05-03 20:33 48.11360 16.57661 614 ft 27 kts 344°
2026-05-03 20:33 48.11517 16.57596 621 ft 12 kts 339°
2026-05-03 20:33 48.11561 16.57507 621 ft 11 kts 294°
2026-05-03 20:33 48.11606 16.57367 620 ft 19 kts 297°
2026-05-03 20:34 48.11661 16.57197 622 ft 16 kts 295°
2026-05-03 20:34 48.11645 16.57054 616 ft 14 kts 217°
2026-05-03 20:34 48.11564 16.56971 617 ft 11 kts 253°
2026-05-03 20:34 48.11584 16.56903 618 ft 6 kts 294°
2026-05-03 20:35 48.11601 16.56851 613 ft 5 kts 298°
2026-05-03 20:35 48.11615 16.56809 610 ft 4 kts 295°
2026-05-03 20:35 48.11614 16.56775 619 ft 4 kts 244°
2026-05-03 20:35 48.11579 16.56743 610 ft 6 kts 206°
2026-05-03 20:36 48.11557 16.56727 617 ft 0 kts 205°